St. Marys, AK

5:07 PM AKST on November 14, 2019 (GMT -0900)
Saint Mary's

Weather History for PASM - September, 2019

Change the Weather History Date:

Tuesday, September 24, 2019

  Actual Average Record
Temperature  
Mean Temperature 38 °F -  
Max Temperature 41 °F 42 °F 57 °F (1997)
Min Temperature 33 °F 32 °F 19 °F (1996)
Degree Days  
Heating Degree Days 26    
Moisture  
Dew Point 37 °F    
Average Humidity 94    
Maximum Humidity 100    
Minimum Humidity 87    
Precipitation  
Precipitation 0.46 in - - ()
Sea Level Pressure  
Sea Level Pressure 29.72 in    
Wind  
Wind Speed 10 mph ()    
Max Wind Speed 24 mph    
Max Gust Speed 33 mph    
Visibility 9.1 miles    
Events Rain    
Averages and records for this station are not official NWS values.
T = Trace of Precipitation, MM = Missing Value Source: Averaged Metar Reports

Daily Weather History Graph

Daily Weather History Graph

Search for Another Location

Airport or City:

Astronomy

Sep. 24, 2019 Rise Set
Actual Time 8:42 AM AKDT 8:46 PM AKDT
Civil Twilight 7:57 AM AKDT 9:30 PM AKDT
Nautical Twilight 7:04 AM AKDT 10:24 PM AKDT
Astronomical Twilight 6:05 AM AKDT 11:22 PM AKDT
Moon 1:42 AM AKDT (9/24) 8:24 PM AKDT (9/24)
Length of Visible Light 13h 33m
Length of Day
12h 04m
Waning Crescent, 21% of the Moon is Illuminated
Sep 24
Waning Crescent
Sep 28
New
Oct 5
First Quarter
Oct 13
Full
Oct 21
Last Quarter

Hourly Weather History & Observations

Time (AKDT) Temp. Windchill Dew Point Humidity Pressure Visibility Wind Dir Wind Speed Gust Speed Precip Events Conditions
1:02 AM 35.1 °F 29.3 °F 33.1 °F 92% 29.88 in 10.0 mi WSW 6.9 mph - N/A   Clear
2:02 AM 35.1 °F 30.1 °F 33.1 °F 92% 29.88 in 10.0 mi WSW 5.8 mph - N/A   Clear
3:02 AM 33.1 °F 26.9 °F 32.0 °F 96% 29.89 in 10.0 mi SSW 6.9 mph - N/A   Partly Cloudy
4:02 AM 34.0 °F 28.0 °F 32.0 °F 92% 29.90 in 10.0 mi SSW 6.9 mph - N/A   Mostly Cloudy
5:02 AM 34.0 °F 27.2 °F 33.1 °F 96% 29.91 in 10.0 mi SSW 8.1 mph - N/A   Overcast
6:02 AM 36.0 °F 29.0 °F 34.0 °F 93% 29.91 in 10.0 mi SSW 9.2 mph - N/A   Overcast
7:02 AM 35.1 °F 28.6 °F 34.0 °F 96% 29.92 in 10.0 mi SW 8.1 mph - N/A   Partly Cloudy
8:02 AM 34.0 °F 26.6 °F 34.0 °F 100% 29.92 in 10.0 mi SSW 9.2 mph - N/A   Partly Cloudy
8:26 AM 33.8 °F 26.4 °F 33.8 °F 100% 29.89 in 10.0 mi SSW 9.2 mph - N/A   Partly Cloudy
9:02 AM 34.0 °F 26.0 °F 34.0 °F 100% 29.92 in 10.0 mi SSW 10.4 mph - N/A   Clear
10:02 AM 36.0 °F 29.6 °F 34.0 °F 93% 29.92 in 10.0 mi SSW 8.1 mph - N/A   Clear
11:02 AM 36.0 °F 29.6 °F 35.1 °F 97% 29.93 in 10.0 mi South 8.1 mph - N/A   Partly Cloudy
12:02 PM 37.9 °F 33.5 °F 36.0 °F 93% 29.92 in 10.0 mi South 5.8 mph - N/A   Partly Cloudy
1:02 PM 39.0 °F 33.4 °F 37.0 °F 93% 29.91 in 10.0 mi South 8.1 mph - N/A   Overcast
2:02 PM 39.9 °F 35.1 °F 37.0 °F 89% 29.88 in 10.0 mi SSE 6.9 mph - N/A   Overcast
3:00 PM 39.2 °F 33.6 °F 35.6 °F 87% 29.83 in 10.0 mi South 8.1 mph - 0.00 in Rain Light Rain
3:02 PM 39.2 °F 32.5 °F 35.6 °F 87% 29.83 in 10.0 mi South 10.4 mph - 0.00 in Rain Light Rain
4:02 PM 37.4 °F 29.3 °F 35.6 °F 93% 29.78 in 8.0 mi SE 12.7 mph 19.6 mph 0.04 in Rain Light Rain
4:35 PM 37.4 °F 29.3 °F 35.6 °F 93% 29.74 in 10.0 mi ESE 12.7 mph 20.7 mph 0.07 in Rain Light Rain
4:48 PM 37.4 °F 28.2 °F 35.6 °F 93% 29.72 in 10.0 mi SE 16.1 mph 25.3 mph 0.08 in Rain Light Rain
5:02 PM 37.4 °F 28.5 °F 35.6 °F 93% 29.70 in 10.0 mi ESE 15.0 mph 23.0 mph 0.10 in Rain Light Rain
5:09 PM 37.4 °F 28.2 °F 37.4 °F 100% 29.69 in 8.0 mi ESE 16.1 mph 24.2 mph 0.10 in Rain Light Rain
5:16 PM 37.4 °F 27.5 °F 37.4 °F 100% 29.67 in 8.0 mi ESE 18.4 mph - 0.11 in Rain Light Rain
5:38 PM 39.2 °F 30.2 °F 37.4 °F 93% 29.65 in 9.0 mi SE 17.3 mph - 0.14 in Rain Light Rain
5:55 PM 41.0 °F 32.8 °F 39.9 °F 96% 29.66 in 5.0 mi SSE 16.1 mph 25.3 mph 0.18 in Rain Rain
6:02 PM 42.8 °F 34.3 °F 41.0 °F 93% 29.63 in 6.0 mi South 19.6 mph 28.8 mph 0.02 in Rain Rain
6:18 PM 42.8 °F 34.5 °F 42.8 °F 100% 29.62 in 6.0 mi South 18.4 mph 29.9 mph 0.05 in Rain Light Rain
7:02 PM 44.1 °F 35.7 °F 43.0 °F 96% 29.60 in 5.0 mi South 20.7 mph 32.2 mph 0.11 in Rain Light Rain
8:02 PM 44.1 °F 35.7 °F 43.0 °F 96% 29.56 in 6.0 mi South 20.7 mph 29.9 mph 0.07 in Rain Light Rain
8:35 PM 44.6 °F 36.6 °F 44.6 °F 100% 29.51 in 5.0 mi South 19.6 mph 27.6 mph 0.04 in Rain Light Rain
9:02 PM 44.1 °F 35.9 °F 44.1 °F 100% 29.52 in 9.0 mi South 19.6 mph 31.1 mph 0.07 in Rain Light Rain
9:43 PM 44.6 °F 35.7 °F 44.6 °F 100% 29.47 in 10.0 mi South 24.2 mph 33.4 mph 0.03 in Rain Light Rain
10:02 PM 44.6 °F 36.4 °F 42.8 °F 93% 29.46 in 10.0 mi SSW 20.7 mph 26.5 mph 0.03 in   Overcast
10:08 PM 44.1 °F 36.8 °F 41.0 °F 89% 29.48 in 10.0 mi SSW 16.1 mph 25.3 mph 0.03 in   Overcast
10:19 PM 44.6 °F 37.2 °F 41.0 °F 87% 29.45 in 10.0 mi SSW 17.3 mph 24.2 mph N/A   Overcast
10:57 PM 42.8 °F 34.8 °F 39.2 °F 87% 29.42 in 10.0 mi South 17.3 mph 25.3 mph N/A   Overcast
11:02 PM 42.1 °F 34.5 °F 39.9 °F 92% 29.44 in 10.0 mi South 15.0 mph 24.2 mph N/A   Overcast
11:22 PM 42.8 °F 35.1 °F 39.2 °F 87% 29.41 in 10.0 mi South 16.1 mph - N/A   Overcast